User: anonymous   Login
Location: Unspecified
(0.0000°N, 0.0000°E)
Time: 06:44:51
(UTC+00:00)
Language:

ASTRA 1KR - Orbit

View from above orbital plane
View from above orbital plane
View from above satellite
View from above satellite

Ground track
Ground track

The orbit data is extracted from the following two-line orbital elements,

1 29055U 06012A   16181.58094060  .00000110  00000-0  00000+0 0  9990
2 29055   0.0853 301.8180 0001025  83.7424 120.8567  1.00272070 37251
Epoch (UTC): 29 June 2016 13:56:33
Eccentricity: 0.0001025
inclination: 0.0853°
perigee height: 35782 km
apogee height: 35790 km
right ascension of ascending node: 301.8180°
argument of perigee: 83.7424°
revolutions per day: 1.00272070
mean anomaly at epoch: 120.8567°
orbit number at epoch: 3725

The dashed part of the orbit path shows where the satellite is in the earth's shadow,  

DLR